TimeCDT,TemperatureF,Dew PointF,Humidity,Sea Level PressureIn,VisibilityMPH,Wind Direction,Wind SpeedMPH,Gust SpeedMPH,PrecipitationIn,Events,Conditions,WindDirDegrees,DateUTC
12:15 AM,75.4,59.5,58,30.02,10.0,Calm,Calm,-,N/A,,Clear,0,2013-08-20 05:15:00
12:35 AM,74.8,60.1,60,30.02,10.0,Calm,Calm,-,N/A,,Clear,0,2013-08-20 05:35:00
12:55 AM,74.3,60.3,61,30.02,10.0,Calm,Calm,-,N/A,,Clear,0,2013-08-20 05:55:00
1:15 AM,73.9,60.8,63,30.02,10.0,Calm,Calm,-,N/A,,Clear,0,2013-08-20 06:15:00
1:35 AM,71.4,61.0,70,30.02,10.0,Calm,Calm,-,N/A,,Clear,0,2013-08-20 06:35:00
1:55 AM,70.0,61.0,73,30.02,10.0,Calm,Calm,-,N/A,,Clear,0,2013-08-20 06:55:00
2:15 AM,71.8,61.7,70,30.02,10.0,Calm,Calm,-,N/A,,Clear,0,2013-08-20 07:15:00
2:35 AM,70.7,60.8,71,30.02,10.0,Calm,Calm,-,N/A,,Clear,0,2013-08-20 07:35:00
2:55 AM,71.2,61.7,72,30.02,10.0,Calm,Calm,-,N/A,,Clear,0,2013-08-20 07:55:00
3:15 AM,71.6,61.9,71,30.02,10.0,Calm,Calm,-,N/A,,Clear,0,2013-08-20 08:15:00
3:35 AM,71.4,62.1,72,30.02,10.0,Calm,Calm,-,N/A,,Clear,0,2013-08-20 08:35:00
3:55 AM,70.7,61.9,74,30.02,10.0,Calm,Calm,-,N/A,,Clear,0,2013-08-20 08:55:00
4:15 AM,68.2,61.7,80,30.03,10.0,Calm,Calm,-,N/A,,Clear,0,2013-08-20 09:15:00
4:35 AM,68.5,61.9,79,30.03,10.0,Calm,Calm,-,N/A,,Clear,0,2013-08-20 09:35:00
4:55 AM,66.6,60.8,82,30.03,10.0,Calm,Calm,-,N/A,,Clear,0,2013-08-20 09:55:00
5:15 AM,66.6,61.9,85,30.03,10.0,Calm,Calm,-,N/A,,Clear,0,2013-08-20 10:15:00
5:35 AM,67.6,63.5,87,30.03,10.0,NNE,3.5,-,N/A,,Clear,30,2013-08-20 10:35:00
5:55 AM,68.0,62.8,83,30.04,7.0,Calm,Calm,-,N/A,,Clear,0,2013-08-20 10:55:00
6:15 AM,68.9,63.5,83,30.04,10.0,NE,3.5,-,N/A,,Clear,40,2013-08-20 11:15:00
6:35 AM,68.4,63.5,84,30.05,5.0,NNE,3.5,-,N/A,,Clear,30,2013-08-20 11:35:00
6:55 AM,68.7,63.5,83,30.05,7.0,NNE,3.5,-,N/A,,Clear,30,2013-08-20 11:55:00
7:15 AM,68.9,63.7,83,30.06,7.0,NE,3.5,-,N/A,,Clear,50,2013-08-20 12:15:00
7:35 AM,69.8,64.0,82,30.06,7.0,NE,3.5,-,N/A,,Clear,50,2013-08-20 12:35:00
7:55 AM,70.7,64.4,80,30.06,7.0,NE,4.6,-,N/A,,Clear,50,2013-08-20 12:55:00
8:15 AM,72.5,64.8,77,30.07,7.0,ENE,3.5,-,N/A,,Clear,60,2013-08-20 13:15:00
8:35 AM,73.4,64.9,75,30.07,7.0,ENE,4.6,-,N/A,,Clear,70,2013-08-20 13:35:00
8:55 AM,75.6,65.5,71,30.07,7.0,East,3.5,-,N/A,,Clear,80,2013-08-20 13:55:00
9:15 AM,78.3,65.8,65,30.08,10.0,ESE,5.8,-,N/A,,Clear,120,2013-08-20 14:15:00
9:35 AM,79.5,65.7,62,30.07,7.0,SSE,3.5,-,N/A,,Clear,150,2013-08-20 14:35:00
9:55 AM,81.0,65.5,59,30.08,10.0,SSE,3.5,-,N/A,,Clear,150,2013-08-20 14:55:00
10:15 AM,82.8,65.3,55,30.08,7.0,Calm,Calm,-,N/A,,Clear,0,2013-08-20 15:15:00
10:35 AM,84.9,64.8,51,30.08,10.0,SE,3.5,-,N/A,,Clear,140,2013-08-20 15:35:00
10:55 AM,85.8,64.6,49,30.07,10.0,SE,3.5,-,N/A,,Clear,140,2013-08-20 15:55:00
11:15 AM,87.6,64.0,45,30.07,10.0,ESE,3.5,-,N/A,,Clear,110,2013-08-20 16:15:00
11:35 AM,88.5,63.5,43,30.07,10.0,South,3.5,-,N/A,,Clear,180,2013-08-20 16:35:00
11:55 AM,89.1,61.9,40,30.06,7.0,SSE,6.9,-,N/A,,Clear,160,2013-08-20 16:55:00
12:15 PM,90.3,58.5,34,30.06,10.0,South,4.6,-,N/A,,Scattered Clouds,170,2013-08-20 17:15:00
12:35 PM,90.9,57.7,33,30.06,7.0,Calm,Calm,-,N/A,,Clear,0,2013-08-20 17:35:00
12:55 PM,90.3,57.0,32,30.05,7.0,SSE,4.6,-,N/A,,Clear,160,2013-08-20 17:55:00
1:15 PM,91.2,55.4,30,30.04,7.0,Calm,Calm,-,N/A,,Clear,0,2013-08-20 18:15:00
1:35 PM,91.8,56.1,30,30.04,7.0,SSE,4.6,-,N/A,,Clear,160,2013-08-20 18:35:00
1:55 PM,92.5,56.1,29,30.03,10.0,ENE,4.6,-,N/A,,Clear,60,2013-08-20 18:55:00
2:15 PM,93.4,55.0,27,30.03,4.0,ESE,5.8,-,N/A,,Clear,110,2013-08-20 19:15:00
2:35 PM,93.4,54.9,27,30.02,10.0,East,8.1,-,N/A,,Clear,100,2013-08-20 19:35:00
2:55 PM,93.0,54.0,27,30.01,4.0,Calm,Calm,-,N/A,,Clear,0,2013-08-20 19:55:00
3:15 PM,94.6,55.4,27,30.01,2.0,SSE,4.6,-,N/A,,Clear,150,2013-08-20 20:15:00
3:35 PM,94.8,55.2,26,30.00,4.0,ESE,6.9,-,N/A,,Clear,110,2013-08-20 20:35:00
3:55 PM,95.0,54.5,25,30.00,7.0,East,4.6,-,N/A,,Clear,90,2013-08-20 20:55:00
4:15 PM,94.6,54.1,25,29.99,7.0,Calm,Calm,-,N/A,,Clear,0,2013-08-20 21:15:00
4:35 PM,95.2,55.4,26,29.99,7.0,East,5.8,-,N/A,,Clear,90,2013-08-20 21:35:00
4:55 PM,95.2,55.2,26,29.99,10.0,East,3.5,-,N/A,,Clear,100,2013-08-20 21:55:00
5:15 PM,95.2,54.7,25,29.98,7.0,SE,5.8,-,N/A,,Clear,130,2013-08-20 22:15:00
5:35 PM,94.8,54.9,26,29.98,7.0,East,6.9,-,N/A,,Clear,90,2013-08-20 22:35:00
5:55 PM,94.1,55.8,27,29.98,7.0,ESE,5.8,-,N/A,,Clear,110,2013-08-20 22:55:00
6:15 PM,93.2,56.5,29,29.98,7.0,East,6.9,-,N/A,,Clear,90,2013-08-20 23:15:00
6:35 PM,92.5,56.7,30,29.98,10.0,East,5.8,-,N/A,,Clear,90,2013-08-20 23:35:00
6:55 PM,91.8,56.3,30,29.98,10.0,ESE,5.8,-,N/A,,Clear,110,2013-08-20 23:55:00
7:15 PM,90.7,56.5,31,29.98,10.0,East,4.6,-,N/A,,Clear,90,2013-08-21 00:15:00
7:35 PM,89.2,55.8,32,29.98,7.0,East,3.5,-,N/A,,Clear,90,2013-08-21 00:35:00
7:55 PM,87.8,55.6,33,29.98,10.0,East,4.6,-,N/A,,Clear,100,2013-08-21 00:55:00
8:15 PM,86.4,55.4,35,29.98,10.0,East,3.5,-,N/A,,Clear,100,2013-08-21 01:15:00
8:35 PM,85.1,56.5,38,29.99,7.0,East,3.5,-,N/A,,Clear,80,2013-08-21 01:35:00
8:55 PM,84.2,58.1,41,29.99,7.0,ENE,3.5,-,N/A,,Clear,70,2013-08-21 01:55:00
9:15 PM,83.1,58.6,43,30.00,10.0,East,3.5,-,N/A,,Clear,80,2013-08-21 02:15:00
9:35 PM,82.0,59.7,47,30.01,10.0,East,3.5,-,N/A,,Clear,80,2013-08-21 02:35:00
9:55 PM,81.5,60.3,48,30.01,10.0,East,3.5,-,N/A,,Clear,100,2013-08-21 02:55:00
10:15 PM,81.5,60.8,49,30.02,5.0,East,3.5,-,N/A,,Clear,90,2013-08-21 03:15:00
10:35 PM,80.8,61.2,51,30.02,7.0,East,3.5,-,N/A,,Clear,90,2013-08-21 03:35:00
10:55 PM,80.1,61.7,53,30.03,5.0,East,3.5,-,N/A,,Clear,90,2013-08-21 03:55:00
11:15 PM,79.3,61.9,55,30.03,10.0,Calm,Calm,-,N/A,,Clear,0,2013-08-21 04:15:00
11:35 PM,79.0,61.9,56,30.03,5.0,Calm,Calm,-,N/A,,Clear,0,2013-08-21 04:35:00
11:55 PM,78.6,61.9,56,30.03,5.0,Calm,Calm,-,N/A,,Clear,0,2013-08-21 04:55:00